Date String (YYYY-MM-DD hh:mm:ss) UTC,Instrument flags,Ambient pressure (hPa),Sample flow (lpm),Bypass flow (lpm),Sample temperature (°C),Ambient temperature (°C),ASC tube jacket temperature (°C),LED temperature (°C),Box temperature (°C),Sample RH (%),Span deviation,Mass concentration (μg/m³),Mass concentration (μg/m³),Mass concentration (μg/m³)
DateTimeUTC,F1_M11,P_M11,Q1_M11,Q2_M11,T1_M11,T2_M11,T3_M11,T4_M11,T5_M11,U1_M11,ZSPAN_M11,X0_M11,X2_M11,X1_M11
2022-01-12 11:00:00,,0829.3,4.98,0.00,23.0,22.3,00.0,32.0,24.8,09.3,0000.0,0002.44,0000.08,0000.00
2022-01-12 11:01:00,,0829.5,5.01,0.00,23.0,22.3,00.0,32.0,24.8,09.5,0000.0,0002.44,0000.08,0000.00
2022-01-12 11:02:00,,0829.4,5.00,0.00,23.0,22.3,00.0,32.0,24.8,09.7,0000.0,0002.47,0000.08,0000.00
2022-01-12 11:03:00,,0829.3,4.99,0.00,23.0,22.3,00.0,32.0,24.8,09.9,0000.0,0002.63,0000.12,0000.00
2022-01-12 11:04:00,,0829.2,4.99,0.00,23.0,22.3,00.0,32.0,24.8,09.9,0000.0,0002.53,0000.12,0000.00
2022-01-12 11:05:00,,0829.2,5.01,0.00,23.0,22.3,00.0,32.0,24.8,10.0,0000.0,0002.70,0000.10,0000.00
2022-01-12 11:06:00,,0829.2,5.01,0.00,23.0,22.3,00.0,32.0,24.8,09.9,0000.0,0002.82,0000.09,0000.00
2022-01-12 11:07:00,,0829.2,5.00,0.00,23.0,22.3,00.0,32.0,24.8,09.6,0000.0,0001.75,0000.09,0000.00
2022-01-12 11:08:00,,0829.2,5.01,0.00,23.0,22.3,00.0,32.0,24.8,09.7,0000.0,0001.60,0000.09,0000.00
2022-01-12 11:09:00,,0829.2,4.99,0.00,23.1,22.3,00.0,32.0,24.8,09.8,0000.0,0001.90,0000.10,0000.00
2022-01-12 11:10:00,,0829.2,5.02,0.00,23.1,22.3,00.0,32.0,24.8,09.2,0000.0,0001.67,0000.11,0000.01
2022-01-12 11:11:00,,0829.3,4.99,0.00,23.1,22.3,00.0,32.0,24.8,08.8,0000.0,0001.66,0000.12,0000.00
2022-01-12 11:12:00,,0829.4,5.00,0.00,23.1,22.3,00.0,32.1,24.8,08.7,0000.0,0001.67,0000.12,0000.01
2022-01-12 11:13:00,,0829.2,5.00,0.00,23.1,22.3,00.0,32.1,24.8,08.6,0000.0,0001.64,0000.12,0000.01
2022-01-12 11:14:00,,0829.3,5.00,0.00,23.1,22.3,00.0,32.0,24.8,08.6,0000.0,0001.41,0000.08,0000.01
2022-01-12 11:15:00,,0829.3,5.01,0.00,23.1,22.3,00.0,32.1,24.8,08.5,0000.0,0001.39,0000.06,0000.01
2022-01-12 11:16:00,,0829.3,4.99,0.00,23.1,22.3,00.0,32.1,24.8,08.4,0000.0,0001.06,0000.06,0000.01
2022-01-12 11:17:00,,0829.4,5.00,0.00,23.0,22.3,00.0,32.1,24.8,08.4,0000.0,0000.85,0000.08,0000.01
2022-01-12 11:18:00,,0829.5,5.00,0.00,23.1,22.3,00.0,32.1,24.8,08.5,0000.0,0000.53,0000.09,0000.01
2022-01-12 11:19:00,,0829.5,4.99,0.00,23.0,22.3,00.0,32.0,24.8,08.6,0000.0,0000.44,0000.07,0000.01
2022-01-12 11:20:00,,0829.4,4.99,0.00,23.0,22.3,00.0,32.0,24.8,08.6,0000.0,0000.16,0000.06,0000.01
2022-01-12 11:21:00,,0829.4,4.99,0.00,23.0,22.3,00.0,32.0,24.8,08.6,0000.0,0000.13,0000.05,0000.00
2022-01-12 11:22:00,,0829.3,4.99,0.00,23.0,22.2,00.0,32.0,24.8,08.6,0000.0,0000.23,0000.04,0000.00
2022-01-12 11:23:00,,0829.3,5.02,0.00,23.0,22.2,00.0,32.0,24.7,08.8,0000.0,0001.92,0000.05,0000.00
2022-01-12 11:24:00,,0829.3,4.99,0.00,23.0,22.2,00.0,32.0,24.7,08.8,0000.0,0001.93,0000.06,0000.00
2022-01-12 11:25:00,,0829.2,4.99,0.00,23.0,22.2,00.0,32.0,24.8,08.9,0000.0,0001.95,0000.07,0000.01
2022-01-12 11:26:00,,0829.5,4.99,0.00,23.0,22.2,00.0,32.0,24.8,08.8,0000.0,0001.99,0000.08,0000.01
2022-01-12 11:27:00,,0829.4,5.01,0.00,23.0,22.2,00.0,32.0,24.8,08.8,0000.0,0002.01,0000.08,0000.01
2022-01-12 11:28:00,,0829.3,4.99,0.00,23.0,22.3,00.0,32.0,24.8,08.7,0000.0,0001.98,0000.06,0000.01
2022-01-12 11:29:00,,0829.5,4.99,0.00,23.0,22.3,00.0,32.0,24.8,08.8,0000.0,0001.96,0000.05,0000.01
2022-01-12 11:30:00,,0829.3,5.00,0.00,23.0,22.3,00.0,32.0,24.8,09.0,0000.0,0001.96,0000.06,0000.01
2022-01-12 11:31:00,,0829.4,5.01,0.00,23.0,22.3,00.0,32.0,24.8,09.0,0000.0,0001.99,0000.07,0000.01
2022-01-12 11:32:00,,0829.5,4.98,0.00,23.0,22.3,00.0,32.0,24.8,08.8,0000.0,0003.04,0000.07,0000.01
2022-01-12 11:33:00,,0829.5,5.00,0.00,23.0,22.3,00.0,32.0,24.8,08.8,0000.0,0004.85,0000.07,0000.01
2022-01-12 11:34:00,,0829.5,5.01,0.00,23.0,22.3,00.0,32.0,24.8,08.9,0000.0,0003.46,0000.11,0000.02
2022-01-12 11:35:00,,0829.5,4.98,0.00,23.0,22.3,00.0,32.0,24.8,08.9,0000.0,0003.51,0000.13,0000.02
2022-01-12 11:36:00,,0829.5,5.00,0.00,23.0,22.3,00.0,32.0,24.8,08.8,0000.0,0003.51,0000.13,0000.02
2022-01-12 11:37:00,,0829.5,4.99,0.00,23.0,22.3,00.0,32.0,24.8,08.9,0000.0,0003.54,0000.13,0000.02
2022-01-12 11:38:00,,0829.5,5.01,0.00,23.1,22.3,00.0,32.1,24.8,09.1,0000.0,0004.28,0000.14,0000.02
2022-01-12 11:39:00,,0829.5,5.01,0.00,23.0,22.3,00.0,32.0,24.8,09.1,0000.0,0004.29,0000.15,0000.02
2022-01-12 11:40:00,,0829.5,4.99,0.00,23.0,22.3,00.0,32.0,24.8,09.1,0000.0,0004.29,0000.15,0000.02
2022-01-12 11:41:00,,0829.5,5.00,0.00,23.0,22.3,00.0,32.0,24.8,09.1,0000.0,0004.28,0000.14,0000.02
2022-01-12 11:42:00,,0829.5,4.99,0.00,23.0,22.2,00.0,32.0,24.8,09.1,0000.0,0004.48,0000.14,0000.02
2022-01-12 11:43:00,,0829.5,5.00,0.00,23.0,22.2,00.0,32.0,24.8,09.2,0000.0,0003.41,0000.15,0000.02
2022-01-12 11:44:00,,0829.5,5.01,0.00,23.0,22.2,00.0,32.0,24.8,09.0,0000.0,0001.51,0000.17,0000.02
2022-01-12 11:45:00,,0829.6,5.00,0.00,23.0,22.2,00.0,32.0,24.8,08.8,0000.0,0001.38,0000.13,0000.01
2022-01-12 11:46:00,,0829.5,5.01,0.00,23.0,22.2,00.0,32.0,24.8,08.8,0000.0,0001.35,0000.11,0000.01
2022-01-12 11:47:00,,0829.6,4.99,0.00,23.0,22.2,00.0,32.0,24.8,08.9,0000.0,0001.39,0000.11,0000.01
2022-01-12 11:48:00,,0829.6,5.00,0.00,23.0,22.2,00.0,32.0,24.8,08.9,0000.0,0001.22,0000.11,0000.01
2022-01-12 11:49:00,,0829.7,5.00,0.00,23.0,22.2,00.0,32.0,24.8,08.9,0000.0,0000.55,0000.08,0000.01
2022-01-12 11:50:00,,0829.7,5.02,0.00,23.0,22.3,00.0,32.0,24.8,08.8,0000.0,0000.56,0000.09,0000.01
2022-01-12 11:51:00,,0829.6,4.99,0.00,23.0,22.3,00.0,32.0,24.8,08.6,0000.0,0000.57,0000.09,0000.01
2022-01-12 11:52:00,,0829.6,5.00,0.00,23.0,22.3,00.0,32.0,24.8,08.5,0000.0,0000.58,0000.09,0000.01
2022-01-12 11:53:00,,0829.6,4.99,0.00,23.0,22.3,00.0,32.0,24.8,08.5,0000.0,0000.38,0000.10,0000.01
2022-01-12 11:54:00,,0829.7,5.00,0.00,23.0,22.3,00.0,32.0,24.8,08.5,0000.0,0000.30,0000.11,0000.01
2022-01-12 11:55:00,,0829.6,5.01,0.00,23.0,22.3,00.0,32.0,24.8,08.4,0000.0,0000.35,0000.11,0000.01
2022-01-12 11:56:00,,0829.6,5.00,0.00,23.0,22.3,00.0,32.0,24.8,08.3,0000.0,0000.46,0000.10,0000.01
2022-01-12 11:57:00,,0829.6,5.00,0.00,23.0,22.3,00.0,32.0,24.8,08.1,0000.0,0001.43,0000.12,0000.01
2022-01-12 11:58:00,,0829.6,5.00,0.00,23.0,22.3,00.0,32.0,24.8,08.0,0000.0,0001.40,0000.10,0000.01
2022-01-12 11:59:00,,0829.6,5.01,0.00,23.0,22.3,00.0,32.0,24.8,08.0,0000.0,0001.70,0000.11,0000.01
